Wind_Speed
20 22 23 24 25 26 28 29 27 29 32 33 34 36 38 39 41 44 45 47 49 50 51 52 54 56 59 60 61 61 60 61
23 23 23 25 26 27 29 31 31 32 34 35 35 36 38 40 43 46 49 52 56 59 60 61 62 62 61 62 64 63 64 66
28 27 25 25 25 26 29 31 32 34 35 34 35 38 42 44 48 52 55 57 60 61 60 63 65 65 66 69 70 70 71 75
32 29 28 29 30 31 31 33 35 35 34 38 41 46 52 56 59 59 58 60 62 64 67 69 69 69 70 72 72 75 72 66
33 32 33 35 35 35 35 37 39 37 39 43 48 53 57 61 64 63 64 66 66 68 71 73 75 78 79 79 79 77 72 79
36 35 38 40 41 42 44 43 40 41 43 50 54 57 61 63 63 64 66 69 72 73 74 74 77 81 84 85 87 87 88 87
43 42 42 42 44 45 44 44 45 48 51 57 60 63 65 65 67 69 73 76 77 76 77 79 81 84 88 91 94 97 96 94
42 44 44 44 45 45 47 48 50 52 58 61 64 67 70 71 74 76 77 78 79 78 79 83 88 92 97 102 106 111 110 99
45 46 47 47 46 47 50 52 54 58 61 64 68 71 74 77 79 80 78 78 81 85 88 92 98 105 110 116 110 98 92 91
45 46 47 47 49 51 54 56 58 61 64 68 71 74 78 80 79 78 79 81 85 90 97 104 111 118 105 92 90 87 84 83
46 48 50 50 51 52 54 56 59 65 70 71 74 77 78 79 79 80 82 85 94 101 109 118 120 107 98 91 83 77 78 78
47 49 49 49 51 54 57 59 64 70 72 73 76 78 78 78 80 83 89 94 102 111 118 107 99 87 77 77 76 70 68 71
48 49 48 50 53 57 61 64 68 69 70 75 78 76 76 78 82 89 96 104 112 112 104 83 73 75 65 58 54 47 47 50
48 48 50 54 58 61 63 66 70 72 75 77 74 74 77 82 89 97 104 110 109 87 68 69 58 42 39 41 40 39 38 39
47 49 52 56 59 61 65 69 74 75 74 70 71 76 81 90 99 104 106 103 72 64 64 42 37 41 50 51 48 48 49 48
45 50 54 57 61 64 69 74 73 71 67 70 75 79 88 98 102 104 96 63 63 63 36 36 39 44 49 51 53 52 47 46
50 53 57 61 64 68 72 71 67 65 67 72 80 89 97 99 99 92 66 60 61 38 32 36 40 45 45 22 13 20 23 23
55 58 61 64 67 68 69 65 63 66 71 80 88 96 94 93 87 65 57 61 46 33 32 36 43 38 20 13 15 14 14 20
57 60 64 65 66 62 57 62 65 70 78 86 92 90 88 79 59 58 56 54 31 27 33 38 39 22 16 14 10 12 9 12
Wind_Direction
254 252 255 253 253 257 265 272 275 275 275 275 275 276 280 283 285 286 287 286 284 283 283 284 280 278 277 278 279 279 279 277
252 253 247 250 257 262 269 276 278 275 272 273 276 280 281 284 287 290 288 286 286 285 285 282 281 279 278 278 277 277 275 276
254 246 245 254 265 270 273 274 278 279 277 277 278 277 278 279 285 287 287 286 284 284 283 282 281 281 279 277 276 275 273 270
255 253 256 261 266 273 278 282 281 280 275 282 280 280 281 282 284 285 283 282 282 282 282 281 280 277 276 275 275 274 270 265
258 259 264 266 270 275 279 280 281 276 278 275 275 277 280 282 285 285 285 285 284 283 282 281 279 277 275 274 272 271 267 265
262 265 266 268 273 277 281 283 281 277 276 278 277 279 282 285 286 288 291 294 291 287 285 282 279 277 275 273 272 271 270 268
262 266 269 274 279 282 283 282 283 281 284 287 287 290 292 293 294 295 295 292 289 287 283 279 276 274 272 272 271 269 266 264
261 267 270 275 279 281 284 285 286 286 287 289 290 292 293 295 292 290 290 291 288 285 283 282 283 283 281 278 274 273 272 272
268 269 270 276 277 281 286 287 288 288 289 290 291 292 292 291 291 291 291 289 288 289 290 290 288 283 279 275 278 280 280 278
268 271 274 274 279 285 287 288 287 288 290 290 291 291 291 292 292 292 291 293 294 294 292 289 284 280 287 292 290 285 280 276
270 272 273 276 283 287 288 290 290 288 287 289 289 290 292 294 295 295 297 297 295 294 288 283 285 292 295 292 284 279 273 267
272 274 277 284 287 288 288 287 286 287 289 290 292 295 296 297 298 300 298 297 291 286 287 293 299 298 290 287 284 279 273 267
276 279 282 286 285 285 285 287 288 290 291 293 295 297 298 299 300 298 295 291 288 294 300 304 296 294 292 288 282 279 278 272
280 282 281 283 285 286 287 288 290 293 293 296 298 298 298 299 297 296 292 290 295 306 303 299 297 292 295 292 287 281 275 266
282 281 281 283 284 285 288 289 291 293 295 297 298 297 298 298 297 293 293 300 306 306 302 299 293 300 300 293 288 283 275 269
278 280 282 283 285 286 286 288 290 293 295 296 297 297 299 297 296 296 305 306 305 304 295 295 302 300 295 289 279 273 268 265
277 280 283 283 285 284 285 289 292 293 296 297 300 301 298 297 299 305 307 310 308 297 291 305 305 302 301 286 293 277 267 262
279 280 283 283 283 286 289 293 294 297 299 301 301 298 299 302 306 310 309 309 302 289 300 306 305 307 283 254 302 305 271 253
281 281 282 283 285 290 291 294 296 299 301 299 297 299 304 307 307 305 305 305 291 302 310 308 306 292 250 265 280 316 289 243
Height
5799 5800 5802 5802 5800 5800 5801 5801 5803 5802 5801 5801 5800 5800 5799 5798 5796 5794 5793 5791 5787 5785 5783 5782 5779 5776 5774 5770 5766 5765 5765 5763
5792 5792 5793 5794 5794 5794 5794 5795 5795 5795 5794 5794 5794 5793 5791 5789 5787 5785 5783 5780 5776 5773 5770 5768 5766 5763 5760 5758 5754 5752 5750 5750
5784 5784 5785 5786 5787 5787 5788 5788 5788 5787 5786 5786 5786 5783 5780 5778 5776 5774 5771 5768 5764 5761 5758 5753 5750 5748 5745 5742 5739 5736 5734 5732
5776 5777 5777 5779 5779 5780 5781 5781 5780 5779 5778 5778 5776 5773 5770 5767 5764 5762 5759 5755 5751 5746 5742 5737 5733 5730 5728 5725 5722 5719 5717 5714
5766 5767 5769 5771 5771 5772 5773 5773 5772 5771 5770 5767 5764 5761 5759 5755 5752 5749 5745 5741 5736 5730 5725 5720 5715 5709 5706 5704 5701 5699 5696 5696
5757 5758 5760 5761 5761 5761 5762 5762 5762 5760 5758 5755 5752 5749 5747 5743 5739 5734 5728 5722 5717 5712 5706 5701 5696 5690 5685 5681 5676 5676 5675 5672
5748 5750 5751 5751 5750 5750 5749 5749 5747 5745 5742 5739 5736 5732 5728 5723 5718 5713 5709 5705 5699 5692 5685 5679 5674 5668 5663 5656 5650 5646 5645 5641
5741 5742 5742 5741 5741 5740 5738 5737 5734 5731 5727 5724 5720 5716 5711 5708 5704 5699 5693 5688 5681 5675 5666 5658 5650 5643 5635 5625 5617 5609 5604 5602
5732 5731 5731 5731 5730 5729 5726 5723 5719 5716 5713 5710 5705 5700 5696 5691 5684 5678 5673 5665 5659 5650 5640 5630 5619 5607 5595 5581 5570 5566 5565 5569
5719 5719 5719 5718 5716 5715 5712 5709 5706 5701 5696 5692 5688 5683 5677 5671 5664 5657 5650 5642 5634 5624 5612 5601 5586 5569 5555 5547 5539 5538 5536 5533
5708 5708 5707 5705 5704 5702 5698 5695 5690 5685 5681 5677 5673 5668 5659 5650 5642 5634 5626 5618 5605 5593 5577 5559 5544 5536 5528 5517 5508 5506 5503 5503
5696 5695 5694 5693 5690 5687 5684 5680 5675 5670 5666 5661 5653 5645 5637 5631 5623 5614 5601 5591 5576 5557 5539 5526 5517 5506 5498 5487 5482 5476 5472 5472
5682 5681 5680 5679 5676 5673 5668 5664 5660 5655 5648 5641 5634 5628 5620 5613 5604 5591 5576 5559 5541 5522 5510 5501 5490 5482 5473 5466 5461 5457 5453 5451
5670 5668 5666 5664 5660 5657 5653 5648 5642 5637 5631 5625 5620 5611 5603 5594 5582 5567 5548 5528 5513 5500 5488 5480 5471 5465 5459 5453 5448 5444 5441 5441
5656 5655 5652 5649 5646 5642 5636 5630 5626 5621 5616 5611 5604 5595 5585 5573 5558 5539 5519 5503 5490 5483 5473 5464 5461 5454 5448 5442 5436 5431 5430 5431
5643 5640 5638 5635 5630 5626 5621 5617 5612 5607 5602 5596 5587 5577 5564 5548 5531 5512 5496 5485 5476 5468 5460 5456 5450 5442 5434 5426 5420 5416 5414 5415
5629 5627 5623 5619 5615 5612 5607 5602 5596 5591 5586 5578 5568 5555 5538 5523 5507 5492 5482 5473 5465 5457 5454 5447 5440 5431 5420 5413 5410 5408 5408 5408
5615 5612 5608 5604 5600 5596 5591 5586 5581 5576 5569 5559 5545 5531 5517 5504 5491 5479 5471 5464 5455 5452 5446 5438 5429 5419 5413 5412 5410 5406 5405 5405
5599 5595 5592 5589 5585 5579 5574 5571 5566 5558 5548 5536 5522 5511 5500 5488 5478 5469 5462 5455 5450 5446 5438 5430 5420 5413 5411 5411 5409 5405 5403 5405